KC5LIO Weather Reports


time (UTC)temp
C
wind
direction
speed
KPH
gust
KPH
rain 1hr
cm
rain 24hr
cm
rain mn
cm
humidity
%
barometer
mb
20260503233204 22 242 1.6 9.7 0.00 0.00 0.00 44 1016.8
20260503231704 23 314 4.8 8.0 0.00 0.00 0.00 41 1016.7
20260503230205 24 358 4.8 11.3 0.00 0.00 0.00 39 1016.8
20260503224705 24 278 4.8 12.9 0.00 0.00 0.00 41 1016.8
20260503223204 25 329 4.8 11.3 0.00 0.00 0.00 38 1016.8
20260503221704 25 260 6.4 9.7 0.00 0.00 0.00 38 1016.8
20260503220205 25 45 4.8 12.9 0.00 0.00 0.00 38 1016.9
20260503214705 25 242 6.4 11.3 0.00 0.00 0.00 40 1017.1
20260503211704 25 66 4.8 11.3 0.00 0.00 0.00 37 1017.3
20260503210205 25 262 8.0 14.5 0.00 0.00 0.00 38 1017.6
20260503204705 25 44 6.4 12.9 0.00 0.00 0.00 36 1017.9
20260503203206 25 270 4.8 14.5 0.00 0.00 0.00 37 1018.3
20260503201705 25 298 8.0 16.1 0.00 0.00 0.00 36 1018.3
20260503194705 25 83 8.0 11.3 0.00 0.00 0.00 36 1018.9
20260503193205 25 51 8.0 12.9 0.00 0.00 0.00 36 1019.0
20260503191705 25 275 8.0 12.9 0.00 0.00 0.00 37 1019.2
20260503190205 25 306 8.0 12.9 0.00 0.00 0.00 39 1019.6
20260503184704 25 31 9.7 16.1 0.00 0.00 0.00 39 1019.9
20260503183205 25 324 3.2 14.5 0.00 0.00 0.00 40 1020.1
20260503181704 25 350 4.8 14.5 0.00 0.00 0.00 38 1020.2
20260503180204 24 287 6.4 16.1 0.00 0.00 0.00 39 1020.4
20260503174704 25 267 4.8 16.1 0.00 0.00 0.00 40 1020.5
20260503173204 24 305 9.7 19.3 0.00 0.00 0.00 39 1020.5
20260503171705 24 27 3.2 12.9 0.00 0.00 0.00 39 1020.7
20260503170205 23 104 8.0 11.3 0.00 0.00 0.00 37 1020.9
20260503160205 23 8 9.7 20.9 0.00 0.00 0.00 40 1021.5
20260503150205 22 46 8.0 12.9 0.00 0.00 0.00 43 1021.8
20260503140204 20 75 3.2 8.0 0.00 0.00 0.00 61 1021.5
20260503130204 15 282 1.6 4.8 0.00 0.00 0.00 78 1020.9
20260503120204 8 4 1.6 3.2 0.00 0.00 0.00 91 1020.6
20260503110205 6 319 1.6 3.2 0.00 0.00 0.00 91 1019.9
20260503100205 6 270 0.0 3.2 0.00 0.00 0.00 90 1019.6
20260503090205 6 272 0.0 0.0 0.00 0.64 0.00 90 1019.1
20260503080205 7 68 0.0 0.0 0.00 1.04 0.00 90 1018.7
20260503071705 7 29 1.6 1.6 0.00 1.70 0.00 89 1018.5
20260503070204 7 24 0.0 0.0 0.00 1.78 0.00 89 1018.6
20260503054705 8 270 0.0 0.0 0.00 2.24 0.00 88 1018.1
20260503051704 8 112 0.0 0.0 0.00 2.77 0.00 88 1018.0
20260503050205 9 48 0.0 0.0 0.00 2.79 0.00 88 1017.9
20260503044704 9 338 0.0 1.6 0.00 2.79 2.79 88 1017.8
20260503043204 9 276 1.6 1.6 0.00 2.79 2.79 87 1017.9
20260503041704 9 292 0.0 0.0 0.00 2.79 2.79 86 1017.8
20260503040206 10 307 0.0 0.0 0.00 2.79 2.79 85 1017.7
20260503034705 10 292 0.0 0.0 0.00 2.79 2.79 85 1017.5
20260503033204 10 270 0.0 0.0 0.00 2.82 2.79 83 1017.4
20260503023204 12 270 0.0 0.0 0.00 3.48 2.79 75 1016.7
20260503021704 12 158 0.0 0.0 0.00 3.63 2.79 75 1016.6
20260503020205 13 158 0.0 0.0 0.00 3.86 2.79 72 1016.4
20260503014704 14 202 0.0 0.0 0.00 4.19 2.79 68 1016.2
20260503011704 16 267 1.6 4.8 0.00 4.45 2.79 60 1015.7
20260503010205 17 260 1.6 4.8 0.00 4.55 2.79 56 1015.5
20260503004704 17 228 4.8 11.3 0.00 4.62 2.79 54 1015.0
20260503003204 18 339 4.8 9.7 0.00 4.65 2.79 55 1014.8
20260503001705 18 316 4.8 12.9 0.00 4.75 2.79 52 1014.7
20260503000205 19 176 6.4 14.5 0.00 4.75 2.79 52 1014.3